CAN4157 CYOO-CYHU

Flight info

Callsign CAN4157
Flight time 1h 46m
Altitude 9000
Route EPMOK DCT TALNO DCT NAPEE
Aircraft C208/L-SDFGR/C

Departure

Time 2026-05-07 22:48
Airport Oshawa Executive Airport (CYOO)

Arrival

Time 2026-05-08 00:34
Airport Montréal / Saint-Hubert Metropolitan Airport (CYHU)
Time Latitude Longitude Altitude Speed Heading
2026-05-07 22:37 43.92562 -78.90156 468 ft 0 kts 293°
2026-05-07 22:43 43.92559 -78.90177 468 ft 8 kts 221°
2026-05-07 22:43 43.92487 -78.90206 469 ft 13 kts 143°
2026-05-07 22:44 43.92437 -78.90049 467 ft 21 kts 110°
2026-05-07 22:44 43.92422 -78.89991 466 ft 0 kts 109°
2026-05-07 22:45 43.92421 -78.89989 466 ft 2 kts 110°
2026-05-07 22:45 43.92392 -78.89881 465 ft 25 kts 111°
2026-05-07 22:46 43.92312 -78.89604 463 ft 27 kts 111°
2026-05-07 22:46 43.92264 -78.89419 465 ft 18 kts 111°
2026-05-07 22:46 43.92207 -78.89213 461 ft 27 kts 111°
2026-05-07 22:46 43.92149 -78.89007 459 ft 12 kts 111°
2026-05-07 22:47 43.92112 -78.88948 458 ft 9 kts 179°
2026-05-07 22:47 43.92058 -78.88993 457 ft 2 kts 277°
2026-05-07 22:47 43.92059 -78.88996 457 ft 0 kts 281°
2026-05-07 22:47 43.92074 -78.89061 459 ft 25 kts 292°
2026-05-07 22:48 43.92196 -78.89502 465 ft 70 kts 290°
2026-05-07 22:48 43.92403 -78.90243 568 ft 88 kts 288°
2026-05-07 22:48 43.92621 -78.91016 812 ft 87 kts 290°
2026-05-07 22:48 43.92843 -78.91773 1102 ft 79 kts 291°
2026-05-07 22:49 43.93022 -78.92451 1381 ft 75 kts 292°
2026-05-07 22:49 43.93195 -78.93164 1580 ft 81 kts 291°
2026-05-07 22:49 43.93397 -78.93938 1772 ft 91 kts 291°
2026-05-07 22:49 43.93637 -78.94804 1946 ft 101 kts 291°
2026-05-07 22:50 43.93908 -78.95743 2117 ft 108 kts 291°
2026-05-07 22:50 43.94187 -78.96717 2329 ft 110 kts 291°
2026-05-07 22:50 43.94472 -78.97719 2533 ft 113 kts 291°
2026-05-07 22:50 43.94763 -78.98740 2724 ft 116 kts 291°
2026-05-07 22:51 43.95070 -78.99819 2826 ft 125 kts 291°
2026-05-07 22:51 43.95418 -79.00966 2867 ft 133 kts 298°
2026-05-07 22:51 43.96114 -79.01766 3024 ft 133 kts 339°
2026-05-07 22:51 43.97026 -79.01682 3233 ft 137 kts 20°
2026-05-07 22:52 43.97691 -79.00727 3437 ft 144 kts 61°
2026-05-07 22:52 43.98015 -78.99418 3650 ft 143 kts 68°
2026-05-07 22:52 43.98353 -78.98132 3858 ft 141 kts 66°
2026-05-07 22:52 43.98701 -78.96861 4069 ft 141 kts 64°
2026-05-07 22:53 43.99047 -78.95586 4279 ft 141 kts 65°
2026-05-07 22:53 43.99387 -78.94311 4495 ft 141 kts 66°
2026-05-07 22:53 43.99732 -78.93032 4713 ft 142 kts 65°
2026-05-07 22:53 44.00078 -78.91746 4921 ft 143 kts 65°
2026-05-07 22:54 44.00431 -78.90455 5130 ft 143 kts 65°
2026-05-07 22:54 44.00782 -78.89157 5337 ft 144 kts 66°
2026-05-07 22:54 44.01135 -78.87853 5548 ft 145 kts 66°
2026-05-07 22:54 44.01488 -78.86540 5762 ft 145 kts 66°
2026-05-07 22:55 44.01841 -78.85220 5973 ft 146 kts 66°
2026-05-07 22:55 44.02198 -78.83891 6188 ft 147 kts 65°
2026-05-07 22:55 44.02556 -78.82560 6390 ft 147 kts 65°
2026-05-07 22:55 44.02915 -78.81224 6592 ft 148 kts 65°
2026-05-07 22:56 44.03276 -78.79883 6795 ft 149 kts 65°
2026-05-07 22:56 44.03639 -78.78531 6954 ft 153 kts 65°
2026-05-07 22:56 44.04033 -78.77076 6937 ft 167 kts 66°
2026-05-07 22:56 44.04448 -78.75520 6932 ft 176 kts 66°
2026-05-07 22:57 44.04876 -78.73904 6925 ft 180 kts 66°
2026-05-07 22:57 44.05315 -78.72258 6915 ft 182 kts 66°
2026-05-07 22:57 44.05759 -78.70598 6912 ft 184 kts 67°
2026-05-07 22:57 44.06200 -78.68949 6910 ft 185 kts 67°
2026-05-07 22:58 44.06646 -78.67275 6902 ft 185 kts 67°
2026-05-07 22:58 44.07093 -78.65606 6903 ft 184 kts 67°
2026-05-07 22:58 44.07538 -78.63942 6898 ft 183 kts 67°
2026-05-07 22:58 44.07982 -78.62284 6900 ft 183 kts 67°
2026-05-07 22:59 44.08423 -78.60629 6899 ft 182 kts 67°
2026-05-07 22:59 44.08862 -78.58975 6897 ft 182 kts 67°
2026-05-07 22:59 44.09303 -78.57319 6900 ft 183 kts 67°
2026-05-07 22:59 44.09742 -78.55665 6921 ft 181 kts 67°
2026-05-07 23:00 44.10176 -78.54030 6962 ft 180 kts 66°
2026-05-07 23:00 44.10607 -78.52400 7019 ft 180 kts 67°
2026-05-07 23:00 44.11041 -78.50769 7069 ft 180 kts 67°
2026-05-07 23:00 44.11477 -78.49129 7047 ft 183 kts 67°
2026-05-07 23:01 44.11921 -78.47455 7013 ft 185 kts 67°
2026-05-07 23:01 44.12367 -78.45769 7008 ft 186 kts 67°
2026-05-07 23:01 44.12814 -78.44082 6993 ft 186 kts 67°
2026-05-07 23:01 44.13260 -78.42396 6994 ft 186 kts 67°
2026-05-07 23:02 44.13705 -78.40710 6986 ft 185 kts 67°
2026-05-07 23:02 44.14150 -78.39026 6985 ft 185 kts 67°
2026-05-07 23:02 44.14595 -78.37345 6985 ft 185 kts 67°
2026-05-07 23:02 44.15040 -78.35662 6984 ft 185 kts 67°
2026-05-07 23:03 44.15484 -78.33975 6993 ft 186 kts 67°
2026-05-07 23:03 44.15928 -78.32287 6991 ft 186 kts 68°
2026-05-07 23:03 44.16372 -78.30599 6990 ft 186 kts 68°
2026-05-07 23:03 44.16817 -78.28910 6987 ft 185 kts 67°
2026-05-07 23:04 44.17262 -78.27228 6985 ft 185 kts 67°
2026-05-07 23:04 44.17710 -78.25548 6990 ft 185 kts 67°
2026-05-07 23:04 44.18159 -78.23868 6989 ft 185 kts 67°
2026-05-07 23:04 44.18604 -78.22185 6994 ft 185 kts 67°
2026-05-07 23:05 44.19048 -78.20499 6986 ft 185 kts 68°
2026-05-07 23:05 44.19489 -78.18815 6986 ft 185 kts 67°
2026-05-07 23:05 44.19932 -78.17129 6993 ft 185 kts 68°
2026-05-07 23:05 44.20373 -78.15443 6993 ft 185 kts 68°
2026-05-07 23:06 44.20813 -78.13758 6989 ft 185 kts 67°
2026-05-07 23:06 44.21254 -78.12072 6997 ft 185 kts 67°
2026-05-07 23:06 44.21694 -78.10387 6995 ft 185 kts 67°
2026-05-07 23:06 44.22134 -78.08701 6999 ft 185 kts 67°
2026-05-07 23:07 44.22575 -78.07014 7001 ft 185 kts 67°
2026-05-07 23:07 44.23016 -78.05321 6998 ft 186 kts 67°
2026-05-07 23:07 44.23456 -78.03627 7000 ft 186 kts 67°
2026-05-07 23:07 44.23897 -78.01934 6996 ft 186 kts 67°
2026-05-07 23:08 44.24337 -78.00242 6999 ft 185 kts 68°
2026-05-07 23:08 44.24773 -77.98551 6993 ft 185 kts 67°
2026-05-07 23:08 44.25211 -77.96867 7003 ft 185 kts 67°
2026-05-07 23:08 44.25649 -77.95185 6995 ft 184 kts 67°
2026-05-07 23:09 44.26083 -77.93509 6993 ft 183 kts 67°
2026-05-07 23:09 44.26516 -77.91838 6999 ft 183 kts 67°
2026-05-07 23:09 44.26947 -77.90171 6995 ft 182 kts 67°
2026-05-07 23:09 44.27232 -77.89071 7002 ft 182 kts 67°
2026-05-07 23:10 44.27662 -77.87409 7005 ft 182 kts 67°
2026-05-07 23:10 44.28092 -77.85745 7007 ft 182 kts 67°
2026-05-07 23:10 44.28521 -77.84078 7003 ft 183 kts 67°
2026-05-07 23:10 44.28952 -77.82409 7001 ft 183 kts 67°
2026-05-07 23:11 44.29524 -77.80193 6999 ft 183 kts 67°
2026-05-07 23:11 44.29816 -77.79058 7006 ft 184 kts 67°
2026-05-07 23:11 44.30249 -77.77378 7004 ft 184 kts 68°
2026-05-07 23:11 44.30681 -77.75694 7004 ft 184 kts 67°
2026-05-07 23:12 44.31115 -77.74008 6998 ft 184 kts 67°
2026-05-07 23:12 44.31547 -77.72325 6998 ft 184 kts 67°
2026-05-07 23:12 44.31979 -77.70642 7001 ft 184 kts 67°
2026-05-07 23:12 44.32412 -77.68957 6999 ft 184 kts 67°
2026-05-07 23:13 44.32843 -77.67271 7006 ft 185 kts 68°
2026-05-07 23:13 44.33277 -77.65580 6995 ft 185 kts 68°
2026-05-07 23:13 44.33714 -77.63888 6991 ft 185 kts 68°
2026-05-07 23:13 44.34150 -77.62194 6995 ft 186 kts 68°
2026-05-07 23:14 44.34585 -77.60496 6996 ft 186 kts 68°
2026-05-07 23:14 44.35017 -77.58794 6996 ft 186 kts 68°
2026-05-07 23:14 44.35448 -77.57095 6996 ft 185 kts 68°
2026-05-07 23:14 44.35877 -77.55407 6989 ft 183 kts 68°
2026-05-07 23:15 44.36303 -77.53732 6987 ft 183 kts 68°
2026-05-07 23:15 44.36729 -77.52063 6990 ft 182 kts 68°
2026-05-07 23:15 44.37151 -77.50403 6995 ft 181 kts 68°
2026-05-07 23:15 44.37574 -77.48742 6992 ft 181 kts 68°
2026-05-07 23:16 44.37996 -77.47078 6999 ft 182 kts 68°
2026-05-07 23:16 44.38418 -77.45411 6998 ft 182 kts 68°
2026-05-07 23:16 44.38842 -77.43741 6996 ft 182 kts 68°
2026-05-07 23:16 44.39266 -77.42069 6997 ft 182 kts 68°
2026-05-07 23:17 44.39689 -77.40401 6992 ft 182 kts 68°
2026-05-07 23:17 44.40111 -77.38735 6995 ft 182 kts 68°
2026-05-07 23:17 44.40534 -77.37066 6996 ft 182 kts 68°
2026-05-07 23:17 44.40955 -77.35399 6994 ft 182 kts 68°
2026-05-07 23:18 44.41376 -77.33726 6989 ft 182 kts 68°
2026-05-07 23:18 44.41799 -77.32052 6994 ft 183 kts 68°
2026-05-07 23:18 44.42222 -77.30376 6991 ft 183 kts 68°
2026-05-07 23:18 44.42645 -77.28700 6990 ft 183 kts 68°
2026-05-07 23:19 44.43069 -77.27020 7000 ft 183 kts 68°
2026-05-07 23:19 44.43493 -77.25336 6995 ft 184 kts 68°
2026-05-07 23:19 44.43917 -77.23649 6992 ft 184 kts 68°
2026-05-07 23:19 44.44340 -77.21964 6988 ft 184 kts 68°
2026-05-07 23:20 44.44763 -77.20280 6991 ft 184 kts 68°
2026-05-07 23:20 44.45185 -77.18594 6989 ft 183 kts 68°
2026-05-07 23:20 44.45607 -77.16910 6989 ft 184 kts 68°
2026-05-07 23:20 44.46025 -77.15245 6991 ft 184 kts 68°
2026-05-07 23:21 44.46448 -77.13557 7000 ft 184 kts 67°
2026-05-07 23:21 44.46873 -77.11856 6989 ft 186 kts 67°
2026-05-07 23:21 44.47301 -77.10151 6993 ft 186 kts 67°
2026-05-07 23:21 44.47729 -77.08439 6993 ft 186 kts 67°
2026-05-07 23:22 44.48156 -77.06727 6992 ft 186 kts 67°
2026-05-07 23:22 44.48584 -77.05013 6991 ft 186 kts 67°
2026-05-07 23:22 44.49010 -77.03300 6992 ft 186 kts 67°
2026-05-07 23:22 44.49437 -77.01585 6988 ft 187 kts 67°
2026-05-07 23:23 44.49865 -76.99869 6986 ft 187 kts 68°
2026-05-07 23:23 44.50291 -76.98152 6986 ft 186 kts 67°
2026-05-07 23:23 44.50717 -76.96437 6988 ft 186 kts 67°
2026-05-07 23:23 44.51144 -76.94721 6992 ft 187 kts 68°
2026-05-07 23:24 44.51571 -76.93000 6992 ft 187 kts 67°
2026-05-07 23:24 44.51996 -76.91284 6995 ft 187 kts 67°
2026-05-07 23:24 44.52423 -76.89564 6992 ft 187 kts 67°
2026-05-07 23:24 44.52848 -76.87847 6990 ft 186 kts 67°
2026-05-07 23:25 44.53273 -76.86130 6992 ft 186 kts 67°
2026-05-07 23:25 44.53696 -76.84417 6988 ft 186 kts 68°
2026-05-07 23:25 44.54119 -76.82704 6992 ft 186 kts 68°
2026-05-07 23:25 44.54542 -76.80993 6989 ft 186 kts 67°
2026-05-07 23:26 44.54965 -76.79280 6980 ft 186 kts 68°
2026-05-07 23:26 44.55386 -76.77569 6980 ft 185 kts 68°
2026-05-07 23:26 44.55807 -76.75862 6985 ft 185 kts 68°
2026-05-07 23:26 44.56227 -76.74154 6986 ft 186 kts 68°
2026-05-07 23:27 44.57068 -76.70731 6985 ft 186 kts 67°
2026-05-07 23:27 44.57488 -76.69018 6987 ft 186 kts 67°
2026-05-07 23:27 44.57910 -76.67301 6985 ft 186 kts 67°
2026-05-07 23:28 44.58332 -76.65584 6981 ft 186 kts 67°
2026-05-07 23:28 44.58752 -76.63866 6983 ft 186 kts 67°
2026-05-07 23:28 44.59173 -76.62151 6982 ft 186 kts 68°
2026-05-07 23:28 44.59587 -76.60454 6986 ft 187 kts 67°
2026-05-07 23:29 44.60014 -76.58709 6985 ft 187 kts 67°
2026-05-07 23:29 44.60430 -76.57006 6984 ft 187 kts 67°
2026-05-07 23:29 44.60850 -76.55280 6980 ft 187 kts 67°
2026-05-07 23:29 44.61270 -76.53556 6973 ft 186 kts 67°
2026-05-07 23:30 44.61688 -76.51837 6981 ft 186 kts 67°
2026-05-07 23:30 44.62108 -76.50114 6983 ft 187 kts 67°
2026-05-07 23:30 44.62529 -76.48388 6981 ft 187 kts 67°
2026-05-07 23:30 44.62950 -76.46660 6980 ft 187 kts 67°
2026-05-07 23:31 44.63369 -76.44934 6981 ft 187 kts 67°
2026-05-07 23:31 44.63788 -76.43210 6975 ft 187 kts 67°
2026-05-07 23:31 44.64206 -76.41485 6975 ft 187 kts 67°
2026-05-07 23:31 44.64624 -76.39760 6975 ft 186 kts 67°
2026-05-07 23:32 44.65041 -76.38037 6976 ft 186 kts 67°
2026-05-07 23:32 44.65459 -76.36314 6975 ft 187 kts 67°
2026-05-07 23:32 44.65876 -76.34589 6975 ft 187 kts 67°
2026-05-07 23:32 44.66292 -76.32865 6972 ft 186 kts 67°
2026-05-07 23:33 44.66708 -76.31146 6973 ft 186 kts 67°
2026-05-07 23:33 44.67123 -76.29424 6976 ft 186 kts 67°
2026-05-07 23:33 44.67539 -76.27699 6976 ft 187 kts 67°
2026-05-07 23:33 44.67955 -76.25974 6968 ft 186 kts 67°
2026-05-07 23:34 44.68368 -76.24255 6972 ft 186 kts 67°
2026-05-07 23:34 44.68782 -76.22533 6971 ft 186 kts 67°
2026-05-07 23:34 44.69195 -76.20815 6969 ft 185 kts 67°
2026-05-07 23:34 44.69608 -76.19096 6973 ft 186 kts 67°
2026-05-07 23:35 44.70023 -76.17373 6971 ft 186 kts 67°
2026-05-07 23:35 44.70436 -76.15648 6970 ft 186 kts 67°
2026-05-07 23:35 44.70848 -76.13927 6969 ft 186 kts 67°
2026-05-07 23:35 44.71261 -76.12204 6970 ft 186 kts 68°
2026-05-07 23:36 44.71672 -76.10484 6969 ft 186 kts 68°
2026-05-07 23:36 44.72084 -76.08764 6967 ft 186 kts 68°
2026-05-07 23:36 44.72495 -76.07043 6974 ft 186 kts 68°
2026-05-07 23:36 44.72906 -76.05322 6972 ft 186 kts 68°
2026-05-07 23:37 44.73318 -76.03595 6973 ft 187 kts 68°
2026-05-07 23:37 44.73731 -76.01864 6970 ft 187 kts 68°
2026-05-07 23:37 44.74143 -76.00129 6968 ft 187 kts 68°
2026-05-07 23:37 44.74555 -75.98398 6973 ft 187 kts 68°
2026-05-07 23:38 44.74962 -75.96687 6967 ft 187 kts 68°
2026-05-07 23:38 44.75374 -75.94955 6965 ft 187 kts 68°
2026-05-07 23:38 44.75785 -75.93224 6962 ft 186 kts 68°
2026-05-07 23:38 44.76194 -75.91498 6956 ft 186 kts 68°
2026-05-07 23:39 44.76604 -75.89771 6959 ft 186 kts 68°
2026-05-07 23:39 44.77014 -75.88043 6957 ft 186 kts 68°
2026-05-07 23:39 44.77424 -75.86312 6954 ft 187 kts 68°
2026-05-07 23:39 44.77833 -75.84579 6955 ft 187 kts 68°
2026-05-07 23:40 44.78243 -75.82844 6956 ft 187 kts 69°
2026-05-07 23:40 44.78653 -75.81107 6956 ft 187 kts 68°
2026-05-07 23:40 44.79063 -75.79369 6957 ft 187 kts 69°
2026-05-07 23:40 44.79473 -75.77628 6954 ft 187 kts 69°
2026-05-07 23:41 44.79882 -75.75890 6953 ft 187 kts 69°
2026-05-07 23:41 44.80291 -75.74150 6952 ft 187 kts 69°
2026-05-07 23:41 44.80700 -75.72414 6950 ft 187 kts 69°
2026-05-07 23:41 44.81108 -75.70679 6950 ft 187 kts 69°
2026-05-07 23:42 44.81516 -75.68942 6948 ft 187 kts 69°
2026-05-07 23:42 44.81923 -75.67204 6949 ft 187 kts 69°
2026-05-07 23:42 44.82331 -75.65468 6949 ft 187 kts 69°
2026-05-07 23:42 44.82738 -75.63729 6946 ft 187 kts 69°
2026-05-07 23:43 44.83144 -75.61996 6948 ft 186 kts 69°
2026-05-07 23:43 44.83549 -75.60263 6949 ft 186 kts 69°
2026-05-07 23:43 44.83955 -75.58528 6950 ft 187 kts 69°
2026-05-07 23:43 44.84361 -75.56790 6951 ft 187 kts 69°
2026-05-07 23:44 44.84767 -75.55048 6945 ft 187 kts 69°
2026-05-07 23:44 44.85173 -75.53307 6957 ft 187 kts 69°
2026-05-07 23:44 44.85580 -75.51562 6953 ft 187 kts 69°
2026-05-07 23:44 44.85986 -75.49818 6949 ft 188 kts 69°
2026-05-07 23:45 44.86392 -75.48072 6946 ft 187 kts 69°
2026-05-07 23:45 44.86798 -75.46326 6948 ft 187 kts 69°
2026-05-07 23:45 44.87202 -75.44585 6947 ft 187 kts 69°
2026-05-07 23:45 44.87606 -75.42844 6947 ft 187 kts 69°
2026-05-07 23:46 44.88009 -75.41105 6952 ft 187 kts 69°
2026-05-07 23:46 44.88413 -75.39363 6950 ft 187 kts 69°
2026-05-07 23:46 44.88815 -75.37621 6949 ft 187 kts 69°
2026-05-07 23:46 44.89218 -75.35880 6953 ft 187 kts 69°
2026-05-07 23:47 44.89621 -75.34137 6955 ft 187 kts 69°
2026-05-07 23:47 44.90024 -75.32390 6956 ft 187 kts 69°
2026-05-07 23:47 44.90428 -75.30643 6955 ft 188 kts 69°
2026-05-07 23:47 44.90831 -75.28892 6954 ft 187 kts 69°
2026-05-07 23:48 44.91234 -75.27144 6955 ft 188 kts 69°
2026-05-07 23:48 44.91632 -75.25417 6955 ft 188 kts 69°
2026-05-07 23:48 44.92034 -75.23666 6957 ft 188 kts 69°
2026-05-07 23:48 44.92437 -75.21914 6957 ft 188 kts 69°
2026-05-07 23:49 44.92839 -75.20164 6959 ft 188 kts 69°
2026-05-07 23:49 44.93311 -75.18457 6961 ft 186 kts 61°
2026-05-07 23:49 44.93879 -75.16819 6962 ft 186 kts 59°
2026-05-07 23:49 44.94463 -75.15193 6963 ft 186 kts 59°
2026-05-07 23:50 44.95045 -75.13566 6964 ft 186 kts 60°
2026-05-07 23:50 44.95620 -75.11933 6961 ft 186 kts 60°
2026-05-07 23:50 44.96187 -75.10292 6964 ft 186 kts 60°
2026-05-07 23:50 44.96746 -75.08643 6964 ft 186 kts 61°
2026-05-07 23:51 44.97302 -75.06986 6966 ft 187 kts 61°
2026-05-07 23:51 44.97854 -75.05329 6963 ft 187 kts 61°
2026-05-07 23:51 44.98405 -75.03669 6969 ft 187 kts 61°
2026-05-07 23:51 44.98957 -75.02003 6966 ft 188 kts 61°
2026-05-07 23:52 44.99510 -75.00333 6966 ft 187 kts 60°
2026-05-07 23:52 45.00061 -74.98667 6965 ft 187 kts 61°
2026-05-07 23:52 45.00613 -74.96998 6968 ft 188 kts 61°
2026-05-07 23:52 45.01166 -74.95327 6955 ft 188 kts 61°
2026-05-07 23:53 45.01717 -74.93659 6950 ft 187 kts 61°
2026-05-07 23:53 45.02267 -74.91992 6954 ft 187 kts 61°
2026-05-07 23:53 45.02815 -74.90330 6953 ft 187 kts 61°
2026-05-07 23:53 45.03364 -74.88666 6952 ft 186 kts 61°
2026-05-07 23:54 45.03910 -74.87009 6953 ft 186 kts 61°
2026-05-07 23:54 45.04456 -74.85350 6953 ft 186 kts 61°
2026-05-07 23:54 45.05003 -74.83687 6953 ft 186 kts 61°
2026-05-07 23:54 45.05545 -74.82039 6953 ft 184 kts 61°
2026-05-07 23:55 45.06086 -74.80395 6953 ft 184 kts 61°
2026-05-07 23:55 45.06618 -74.78779 6952 ft 184 kts 61°
2026-05-07 23:55 45.07163 -74.77119 6948 ft 184 kts 61°
2026-05-07 23:55 45.07694 -74.75501 6948 ft 184 kts 61°
2026-05-07 23:56 45.08232 -74.73861 6953 ft 184 kts 61°
2026-05-07 23:56 45.08771 -74.72215 6948 ft 184 kts 61°
2026-05-07 23:56 45.09311 -74.70569 6949 ft 184 kts 61°
2026-05-07 23:56 45.09851 -74.68919 6951 ft 185 kts 61°
2026-05-07 23:57 45.10392 -74.67266 6948 ft 185 kts 61°
2026-05-07 23:57 45.10933 -74.65613 6948 ft 185 kts 61°
2026-05-07 23:57 45.11472 -74.63959 6948 ft 185 kts 61°
2026-05-07 23:57 45.12011 -74.62309 6944 ft 185 kts 61°
2026-05-07 23:58 45.12549 -74.60659 6943 ft 185 kts 60°
2026-05-07 23:58 45.13086 -74.59011 6941 ft 184 kts 60°
2026-05-07 23:58 45.13441 -74.57920 6941 ft 184 kts 60°
2026-05-07 23:58 45.13978 -74.56273 6943 ft 184 kts 60°
2026-05-07 23:59 45.14515 -74.54623 6941 ft 184 kts 60°
2026-05-07 23:59 45.15051 -74.52975 6939 ft 184 kts 60°
2026-05-07 23:59 45.15586 -74.51330 6941 ft 184 kts 60°
2026-05-07 23:59 45.16121 -74.49683 6942 ft 184 kts 60°
2026-05-08 00:00 45.16657 -74.48031 6943 ft 184 kts 60°
2026-05-08 00:00 45.17191 -74.46385 6940 ft 184 kts 60°
2026-05-08 00:00 45.17725 -74.44739 6943 ft 184 kts 60°
2026-05-08 00:00 45.18259 -74.43090 6943 ft 184 kts 60°
2026-05-08 00:01 45.18794 -74.41437 6939 ft 184 kts 60°
2026-05-08 00:01 45.19328 -74.39789 6937 ft 184 kts 60°
2026-05-08 00:01 45.19861 -74.38141 6935 ft 184 kts 60°
2026-05-08 00:01 45.20393 -74.36493 6935 ft 184 kts 60°
2026-05-08 00:02 45.20926 -74.34845 6935 ft 184 kts 60°
2026-05-08 00:02 45.21456 -74.33202 6937 ft 183 kts 60°
2026-05-08 00:02 45.21986 -74.31558 6938 ft 183 kts 60°
2026-05-08 00:02 45.22517 -74.29912 6939 ft 184 kts 60°
2026-05-08 00:03 45.23047 -74.28266 6934 ft 183 kts 60°
2026-05-08 00:03 45.23577 -74.26620 6937 ft 183 kts 60°
2026-05-08 00:03 45.24106 -74.24976 6936 ft 183 kts 60°
2026-05-08 00:03 45.24633 -74.23338 6937 ft 182 kts 60°
2026-05-08 00:04 45.25159 -74.21702 6939 ft 182 kts 60°
2026-05-08 00:04 45.25684 -74.20067 6939 ft 182 kts 60°
2026-05-08 00:04 45.26209 -74.18433 6936 ft 182 kts 61°
2026-05-08 00:04 45.26733 -74.16802 6941 ft 181 kts 61°
2026-05-08 00:05 45.27255 -74.15175 6940 ft 181 kts 61°
2026-05-08 00:05 45.27775 -74.13552 6939 ft 180 kts 60°
2026-05-08 00:05 45.28294 -74.11929 6939 ft 180 kts 61°
2026-05-08 00:05 45.28812 -74.10307 6937 ft 180 kts 61°
2026-05-08 00:06 45.29329 -74.08688 6933 ft 180 kts 60°
2026-05-08 00:06 45.29844 -74.07072 6937 ft 180 kts 60°
2026-05-08 00:06 45.30353 -74.05452 6933 ft 180 kts 61°
2026-05-08 00:06 45.30863 -74.03830 6928 ft 180 kts 61°
2026-05-08 00:07 45.31375 -74.02205 6930 ft 180 kts 61°
2026-05-08 00:07 45.31888 -74.00587 6931 ft 180 kts 61°
2026-05-08 00:07 45.32402 -73.98969 6931 ft 180 kts 60°
2026-05-08 00:07 45.32917 -73.97351 6926 ft 179 kts 61°
2026-05-08 00:08 45.33423 -73.95762 6923 ft 179 kts 61°
2026-05-08 00:08 45.33933 -73.94157 6932 ft 178 kts 61°
2026-05-08 00:08 45.34445 -73.92546 6928 ft 179 kts 60°
2026-05-08 00:08 45.34957 -73.90936 6930 ft 179 kts 61°
2026-05-08 00:09 45.35470 -73.89320 6923 ft 180 kts 61°
2026-05-08 00:09 45.35983 -73.87700 6926 ft 180 kts 60°
2026-05-08 00:09 45.36496 -73.86082 6926 ft 180 kts 61°
2026-05-08 00:09 45.37013 -73.84453 6844 ft 184 kts 61°
2026-05-08 00:10 45.37548 -73.82769 6695 ft 189 kts 61°
2026-05-08 00:10 45.38091 -73.81053 6540 ft 191 kts 61°
2026-05-08 00:10 45.38618 -73.79377 6381 ft 179 kts 61°
2026-05-08 00:10 45.39111 -73.77805 6222 ft 170 kts 61°
2026-05-08 00:11 45.39589 -73.76293 6059 ft 166 kts 61°
2026-05-08 00:11 45.40060 -73.74807 5899 ft 164 kts 60°
2026-05-08 00:11 45.40526 -73.73335 5754 ft 162 kts 61°
2026-05-08 00:11 45.40984 -73.71881 5597 ft 160 kts 61°
2026-05-08 00:12 45.41440 -73.70438 5447 ft 160 kts 61°
2026-05-08 00:12 45.41895 -73.68993 5291 ft 160 kts 61°
2026-05-08 00:12 45.42368 -73.67574 5131 ft 157 kts 52°
2026-05-08 00:12 45.43077 -73.66440 4983 ft 152 kts 33°
2026-05-08 00:13 45.43891 -73.65479 4827 ft 152 kts 31°
2026-05-08 00:13 45.44705 -73.64516 4675 ft 153 kts 32°
2026-05-08 00:13 45.45511 -73.63520 4512 ft 154 kts 33°
2026-05-08 00:13 45.46314 -73.62499 4350 ft 155 kts 34°
2026-05-08 00:14 45.47114 -73.61464 4187 ft 156 kts 35°
2026-05-08 00:14 45.47913 -73.60417 4025 ft 156 kts 36°
2026-05-08 00:14 45.48711 -73.59368 3869 ft 156 kts 35°
2026-05-08 00:14 45.49512 -73.58314 3712 ft 157 kts 35°
2026-05-08 00:15 45.50315 -73.57256 3565 ft 157 kts 35°
2026-05-08 00:15 45.51116 -73.56199 3405 ft 157 kts 36°
2026-05-08 00:15 45.51908 -73.55156 3255 ft 158 kts 35°
2026-05-08 00:15 45.52717 -73.54089 3100 ft 158 kts 35°
2026-05-08 00:16 45.53524 -73.53029 2969 ft 157 kts 35°
2026-05-08 00:16 45.54332 -73.51968 2892 ft 158 kts 36°
2026-05-08 00:16 45.55134 -73.50905 2856 ft 156 kts 36°
2026-05-08 00:16 45.55924 -73.49858 2848 ft 154 kts 36°
2026-05-08 00:17 45.56704 -73.48826 2843 ft 152 kts 36°
2026-05-08 00:17 45.57478 -73.47800 2839 ft 152 kts 37°
2026-05-08 00:17 45.58250 -73.46776 2831 ft 152 kts 36°
2026-05-08 00:17 45.59026 -73.45751 2835 ft 152 kts 35°
2026-05-08 00:18 45.59797 -73.44733 2840 ft 151 kts 36°
2026-05-08 00:18 45.60569 -73.43712 2828 ft 151 kts 36°
2026-05-08 00:18 45.61339 -73.42692 2835 ft 151 kts 36°
2026-05-08 00:18 45.62110 -73.41669 2841 ft 152 kts 36°
2026-05-08 00:19 45.62882 -73.40645 2831 ft 151 kts 36°
2026-05-08 00:19 45.63650 -73.39626 2831 ft 151 kts 36°
2026-05-08 00:19 45.64417 -73.38608 2825 ft 150 kts 36°
2026-05-08 00:19 45.65181 -73.37594 2828 ft 150 kts 36°
2026-05-08 00:20 45.65946 -73.36578 2833 ft 150 kts 35°
2026-05-08 00:20 45.66714 -73.35562 2837 ft 151 kts 36°
2026-05-08 00:20 45.67485 -73.34538 2839 ft 151 kts 36°
2026-05-08 00:20 45.68253 -73.33514 2828 ft 151 kts 36°
2026-05-08 00:21 45.69015 -73.32501 2836 ft 152 kts 36°
2026-05-08 00:21 45.69694 -73.31293 2831 ft 158 kts 56°
2026-05-08 00:21 45.70044 -73.29821 2828 ft 161 kts 79°
2026-05-08 00:21 45.70021 -73.28229 2828 ft 161 kts 102°
2026-05-08 00:22 45.69628 -73.26750 2824 ft 158 kts 124°
2026-05-08 00:22 45.68891 -73.25646 2827 ft 152 kts 149°
2026-05-08 00:22 45.68081 -73.24662 2833 ft 154 kts 141°
2026-05-08 00:22 45.67320 -73.23573 2830 ft 155 kts 141°
2026-05-08 00:23 45.66453 -73.22731 2836 ft 148 kts 166°
2026-05-08 00:23 45.65477 -73.22489 2840 ft 138 kts 190°
2026-05-08 00:23 45.64578 -73.22753 2838 ft 128 kts 210°
2026-05-08 00:23 45.63852 -73.23386 2827 ft 118 kts 231°
2026-05-08 00:24 45.63356 -73.24285 2828 ft 113 kts 245°
2026-05-08 00:24 45.63231 -73.25347 2838 ft 110 kts 281°
2026-05-08 00:24 45.63632 -73.26273 2847 ft 115 kts 315°
2026-05-08 00:24 45.64397 -73.26701 2837 ft 122 kts 341°
2026-05-08 00:25 45.65226 -73.26956 2828 ft 121 kts 338°
2026-05-08 00:25 45.66043 -73.27247 2828 ft 121 kts 336°
2026-05-08 00:25 45.66859 -73.27535 2838 ft 121 kts 338°
2026-05-08 00:25 45.67684 -73.27822 2840 ft 123 kts 338°
2026-05-08 00:26 45.68560 -73.27770 2831 ft 135 kts 13°
2026-05-08 00:26 45.69266 -73.26833 2829 ft 147 kts 59°
2026-05-08 00:26 45.69351 -73.25382 2824 ft 150 kts 109°
2026-05-08 00:26 45.68745 -73.24243 2833 ft 143 kts 151°
2026-05-08 00:27 45.67905 -73.23516 2841 ft 140 kts 159°
2026-05-08 00:27 45.67034 -73.22896 2830 ft 139 kts 166°
2026-05-08 00:27 45.66118 -73.22550 2834 ft 134 kts 181°
2026-05-08 00:27 45.65208 -73.22559 2841 ft 129 kts 197°
2026-05-08 00:28 45.64369 -73.22930 2840 ft 124 kts 214°
2026-05-08 00:28 45.63690 -73.23621 2826 ft 117 kts 234°
2026-05-08 00:28 45.63166 -73.24503 2836 ft 117 kts 234°
2026-05-08 00:28 45.62608 -73.25339 2831 ft 113 kts 232°
2026-05-08 00:29 45.62080 -73.26102 2817 ft 102 kts 234°
2026-05-08 00:29 45.61608 -73.26793 2814 ft 92 kts 234°
2026-05-08 00:29 45.61183 -73.27430 2836 ft 84 kts 235°
2026-05-08 00:29 45.60774 -73.28083 2801 ft 95 kts 236°
2026-05-08 00:30 45.60316 -73.28835 2660 ft 103 kts 235°
2026-05-08 00:30 45.59834 -73.29582 2509 ft 104 kts 234°
2026-05-08 00:30 45.59337 -73.30313 2346 ft 101 kts 233°
2026-05-08 00:30 45.58862 -73.31038 2178 ft 100 kts 234°
2026-05-08 00:31 45.58391 -73.31764 2023 ft 100 kts 234°
2026-05-08 00:31 45.57921 -73.32487 1860 ft 99 kts 234°
2026-05-08 00:31 45.57451 -73.33200 1698 ft 99 kts 234°
2026-05-08 00:31 45.56984 -73.33915 1537 ft 99 kts 233°
2026-05-08 00:32 45.56512 -73.34635 1403 ft 100 kts 233°
2026-05-08 00:32 45.56033 -73.35365 1254 ft 102 kts 233°
2026-05-08 00:32 45.55561 -73.36089 1149 ft 98 kts 233°
2026-05-08 00:32 45.55093 -73.36792 1024 ft 98 kts 231°
2026-05-08 00:33 45.54627 -73.37502 836 ft 99 kts 232°
2026-05-08 00:33 45.54161 -73.38214 654 ft 96 kts 234°
2026-05-08 00:33 45.53708 -73.38890 515 ft 87 kts 233°
2026-05-08 00:33 45.53307 -73.39537 401 ft 89 kts 229°
2026-05-08 00:34 45.52884 -73.40152 265 ft 85 kts 228°
2026-05-08 00:34 45.52494 -73.40741 117 ft 76 kts 232°
2026-05-08 00:34 45.52186 -73.41212 94 ft 55 kts 229°
2026-05-08 00:34 45.51990 -73.41519 96 ft 34 kts 225°
2026-05-08 00:35 45.51826 -73.41777 99 ft 37 kts 228°
2026-05-08 00:35 45.51643 -73.42060 92 ft 32 kts 225°
2026-05-08 00:35 45.51523 -73.42246 94 ft 28 kts 227°
2026-05-08 00:35 45.51383 -73.42461 95 ft 27 kts 228°
2026-05-08 00:36 45.51263 -73.42640 95 ft 26 kts 227°
2026-05-08 00:36 45.51179 -73.42834 93 ft 20 kts 300°
2026-05-08 00:36 45.51305 -73.42788 94 ft 27 kts 49°
2026-05-08 00:36 45.51424 -73.42684 93 ft 0 kts 358°